Date String (YYYY-MM-DD hh:mm:ss) UTC,Instrument flags,absolute air pressure of the measurement (hPa),sample flow rate (lpm),inlet stack bypass flow (lpm),air temperature of the measurement (°C),ambient temperature measured by the external sensor (°C),aerosol sample conditioner tube jacket temperature (°C),OPC LED temperature (°C),internal box temperature (°C),relative humidity of the measurement (%),span deviation,mass concentration of particles derived from Lorenz-Mie calculation of OPC scattering (μg/m³),mass concentration of particles derived from Lorenz-Mie calculation of OPC scattering (μg/m³),mass concentration of particles derived from Lorenz-Mie calculation of OPC scattering (μg/m³)
DateTimeUTC,F1_M11,P_M11,Q1_M11,Q2_M11,T1_M11,T2_M11,T3_M11,T4_M11,T5_M11,U1_M11,ZSPAN_M11,X0_M11,X2_M11,X1_M11
2023-10-22 18:00:00,SystemResetWarning,0826.2,5.00,000.00,028.7,024.4,000.0,037.1,030.2,17.0,0000.0,0013.79,0004.65,0002.88
2023-10-22 18:01:00,SystemResetWarning,0826.2,5.01,000.00,028.7,024.5,000.0,037.0,030.1,17.1,0000.0,0014.57,0004.73,0002.87
2023-10-22 18:02:00,SystemResetWarning,0826.2,5.00,000.00,028.5,024.8,000.0,037.0,029.9,17.2,0000.0,0015.57,0004.73,0002.86
2023-10-22 18:03:00,SystemResetWarning,0826.3,4.99,000.00,028.5,025.2,000.0,037.0,030.0,17.3,0000.0,0014.70,0004.67,0002.84
2023-10-22 18:04:00,SystemResetWarning,0826.2,5.00,000.00,028.5,025.7,000.0,037.0,030.0,17.3,0000.0,0014.95,0004.62,0002.83
2023-10-22 18:05:00,SystemResetWarning,0826.2,5.01,000.00,028.5,026.0,000.0,037.0,030.1,17.1,0000.0,0015.09,0004.63,0002.85
2023-10-22 18:06:00,SystemResetWarning,0826.2,4.99,000.00,028.5,026.3,000.0,037.0,030.1,17.0,0000.0,0015.75,0004.67,0002.85
2023-10-22 18:07:00,SystemResetWarning,0826.2,5.00,000.00,028.5,026.6,000.0,037.0,030.2,17.1,0000.0,0016.26,0004.73,0002.83
2023-10-22 18:08:00,SystemResetWarning,0826.2,5.00,000.00,028.5,026.9,000.0,037.0,030.2,17.1,0000.0,0017.30,0004.83,0002.83
2023-10-22 18:09:00,SystemResetWarning,0826.2,5.00,000.00,028.6,027.1,000.0,037.0,030.3,17.1,0000.0,0018.61,0004.87,0002.83
2023-10-22 18:10:00,SystemResetWarning,0826.2,5.01,000.00,028.6,027.2,000.0,037.0,030.4,17.4,0000.0,0018.85,0004.89,0002.81
2023-10-22 18:11:00,SystemResetWarning,0826.2,4.99,000.00,028.6,027.4,000.0,037.1,030.4,17.4,0000.0,0019.86,0004.89,0002.82
2023-10-22 18:12:00,SystemResetWarning,0826.2,5.00,000.00,028.7,027.5,000.0,037.1,030.5,17.4,0000.0,0020.24,0004.80,0002.83
2023-10-22 18:13:00,SystemResetWarning,0826.2,5.00,000.00,028.7,027.6,000.0,037.1,030.5,17.2,0000.0,0019.97,0004.78,0002.84
2023-10-22 18:14:00,SystemResetWarning,0826.2,5.00,000.00,028.8,027.7,000.0,037.1,030.6,17.1,0000.0,0020.08,0004.77,0002.83
2023-10-22 18:15:00,SystemResetWarning,0826.2,5.00,000.00,028.8,027.8,000.0,037.1,030.6,17.1,0000.0,0020.10,0004.83,0002.84
2023-10-22 18:16:00,SystemResetWarning,0826.0,4.98,000.00,028.8,026.9,000.0,037.1,030.6,17.0,0000.0,0019.89,0004.78,0002.85
2023-10-22 18:17:00,SystemResetWarning,0825.9,5.00,000.00,028.8,025.1,000.0,037.1,030.4,17.1,0000.0,0020.22,0004.80,0002.86
2023-10-22 18:18:00,SystemResetWarning,0825.9,5.01,000.00,028.7,024.4,000.0,037.0,030.2,17.5,0000.0,0020.11,0004.77,0002.89
2023-10-22 18:19:00,SystemResetWarning,0826.0,5.00,000.00,028.6,024.7,000.0,037.0,030.1,17.6,0000.0,0019.80,0004.72,0002.89
2023-10-22 18:20:00,SystemResetWarning,0826.0,4.99,000.00,028.5,025.0,000.0,037.0,030.0,17.4,0000.0,0019.41,0004.71,0002.89
2023-10-22 18:21:00,SystemResetWarning,0825.9,5.00,000.00,028.5,025.4,000.0,037.0,030.0,17.5,0000.0,0018.96,0004.69,0002.90
2023-10-22 18:22:00,SystemResetWarning,0825.9,5.01,000.00,028.5,025.8,000.0,037.0,030.0,17.6,0000.0,0018.33,0004.66,0002.90
2023-10-22 18:23:00,SystemResetWarning,0825.9,5.00,000.00,028.5,026.2,000.0,037.0,030.1,17.8,0000.0,0018.30,0004.67,0002.87
2023-10-22 18:24:00,SystemResetWarning,0825.9,4.99,000.00,028.5,026.5,000.0,037.0,030.2,18.0,0000.0,0017.99,0004.68,0002.83
2023-10-22 18:25:00,SystemResetWarning,0825.9,4.99,000.00,028.5,026.7,000.0,037.0,030.2,17.8,0000.0,0018.77,0004.76,0002.85
2023-10-22 18:26:00,SystemResetWarning,0826.0,4.99,000.00,028.5,027.0,000.0,037.0,030.3,17.7,0000.0,0019.10,0004.80,0002.86
2023-10-22 18:27:00,SystemResetWarning,0826.0,5.01,000.00,028.6,027.1,000.0,037.0,030.3,17.7,0000.0,0019.35,0004.84,0002.85
2023-10-22 18:28:00,SystemResetWarning,0826.1,5.01,000.00,028.6,027.3,000.0,037.0,030.4,17.6,0000.0,0019.28,0004.81,0002.83
2023-10-22 18:29:00,SystemResetWarning,0825.9,5.00,000.00,028.7,027.5,000.0,037.1,030.5,17.6,0000.0,0020.16,0004.83,0002.80
2023-10-22 18:30:00,SystemResetWarning,0825.9,4.99,000.00,028.7,027.6,000.0,037.1,030.5,17.6,0000.0,0020.50,0004.83,0002.79
2023-10-22 18:31:00,SystemResetWarning,0825.9,4.99,000.00,028.7,027.7,000.0,037.1,030.5,17.5,0000.0,0019.98,0004.87,0002.79
2023-10-22 18:32:00,SystemResetWarning,0825.9,4.99,000.00,028.8,026.9,000.0,037.1,030.5,17.5,0000.0,0019.93,0004.94,0002.79
2023-10-22 18:33:00,SystemResetWarning,0825.9,5.01,000.00,028.7,025.0,000.0,037.0,030.3,18.0,0000.0,0019.79,0004.95,0002.79
2023-10-22 18:34:00,SystemResetWarning,0825.9,5.00,000.00,028.6,024.4,000.0,036.9,030.2,18.2,0000.0,0018.91,0004.97,0002.80
2023-10-22 18:35:00,SystemResetWarning,0825.9,5.01,000.00,028.5,024.6,000.0,036.9,029.9,18.2,0000.0,0019.43,0005.04,0002.82
2023-10-22 18:36:00,SystemResetWarning,0825.8,5.00,000.00,028.4,025.0,000.0,036.9,029.9,18.2,0000.0,0019.10,0005.05,0002.85
2023-10-22 18:37:00,SystemResetWarning,0825.8,4.99,000.00,028.4,025.4,000.0,037.0,029.9,18.2,0000.0,0018.77,0005.03,0002.84
2023-10-22 18:38:00,SystemResetWarning,0825.8,5.00,000.00,028.4,025.8,000.0,037.0,030.0,18.2,0000.0,0018.28,0004.99,0002.84
2023-10-22 18:39:00,SystemResetWarning,0825.8,5.01,000.00,028.4,026.1,000.0,037.0,030.1,18.0,0000.0,0018.12,0005.08,0002.85
2023-10-22 18:40:00,SystemResetWarning,0825.7,5.01,000.00,028.4,026.4,000.0,036.9,030.1,17.9,0000.0,0016.65,0005.06,0002.85
2023-10-22 18:41:00,SystemResetWarning,0825.6,4.99,000.00,028.4,026.7,000.0,037.0,030.2,17.7,0000.0,0016.34,0005.06,0002.86
2023-10-22 18:42:00,SystemResetWarning,0825.6,5.00,000.00,028.5,026.9,000.0,037.0,030.2,17.5,0000.0,0015.89,0005.03,0002.87
2023-10-22 18:43:00,SystemResetWarning,0825.7,5.00,000.00,028.5,027.1,000.0,037.0,030.3,17.6,0000.0,0016.06,0004.96,0002.88
2023-10-22 18:44:00,SystemResetWarning,0825.7,5.00,000.00,028.6,027.3,000.0,037.0,030.3,18.0,0000.0,0016.09,0004.95,0002.88
2023-10-22 18:45:00,SystemResetWarning,0825.7,5.00,000.00,028.6,027.4,000.0,037.0,030.4,18.2,0000.0,0016.15,0004.91,0002.91
2023-10-22 18:46:00,SystemResetWarning,0825.8,5.00,000.00,028.6,027.5,000.0,037.0,030.5,18.3,0000.0,0016.06,0004.86,0002.93
2023-10-22 18:47:00,SystemResetWarning,0825.7,5.01,000.00,028.7,027.6,000.0,037.1,030.5,18.2,0000.0,0016.01,0004.90,0002.94
2023-10-22 18:48:00,SystemResetWarning,0825.7,4.99,000.00,028.7,027.5,000.0,037.1,030.6,17.8,0000.0,0016.58,0004.93,0002.93
2023-10-22 18:49:00,SystemResetWarning,0825.7,4.98,000.00,028.7,025.9,000.0,037.0,030.4,17.8,0000.0,0017.66,0004.88,0002.93
2023-10-22 18:50:00,SystemResetWarning,0825.6,5.01,000.00,028.6,024.4,000.0,036.9,030.2,17.9,0000.0,0018.11,0004.84,0002.94
2023-10-22 18:51:00,SystemResetWarning,0825.6,5.01,000.00,028.5,024.3,000.0,036.9,030.0,17.6,0000.0,0019.01,0004.85,0002.96
2023-10-22 18:52:00,SystemResetWarning,0825.6,5.00,000.00,028.4,024.6,000.0,036.9,029.8,17.7,0000.0,0019.31,0004.89,0002.98
2023-10-22 18:53:00,SystemResetWarning,0825.5,4.99,000.00,028.4,025.0,000.0,036.9,029.9,17.8,0000.0,0020.16,0004.88,0002.98
2023-10-22 18:54:00,SystemResetWarning,0825.6,5.00,000.00,028.4,025.5,000.0,036.9,029.9,17.8,0000.0,0019.78,0004.88,0002.99
2023-10-22 18:55:00,SystemResetWarning,0825.6,5.00,000.00,028.4,025.9,000.0,036.9,030.0,17.9,0000.0,0020.01,0004.92,0003.00
2023-10-22 18:56:00,SystemResetWarning,0825.6,5.01,000.00,028.4,026.2,000.0,036.9,030.0,17.6,0000.0,0020.48,0004.99,0003.01
2023-10-22 18:57:00,SystemResetWarning,0825.6,4.99,000.00,028.4,026.5,000.0,036.9,030.1,17.4,0000.0,0019.99,0005.09,0002.98
2023-10-22 18:58:00,SystemResetWarning,0825.5,4.99,000.00,028.4,026.7,000.0,036.9,030.2,17.4,0000.0,0019.69,0005.06,0002.98
2023-10-22 18:59:00,SystemResetWarning,0825.5,5.00,000.00,028.4,026.9,000.0,036.9,030.2,17.7,0000.0,0019.21,0004.99,0002.97
